ASIASAT 7

Last updated on Nov. 18, 2019, 4:21 a.m. UTC

1 37933U 11069A   19321.86580385 -.00000327  00000-0  00000+0 0  9993
2 37933   0.0122 295.7154 0001264 281.1539 256.9558  1.00267806 29367
UTC
Height (km)
Latitude
Longitude
Inclination
Orbital Period
UTC large
Height (km)
Speed (km/s)
/
Latitude / Longitude
Inclination (degrees)
Orbital Period (minutes)
Azimuth
Elevation
Range (km)
Doppler Factor
iOS Compass Heading
iOS Angle

Next 30 passes for location: Hong Kong

Rise time Rise Azimuth (degrees) Set time Set Azimuth (degrees) Duration Max altitude (degrees)

No matching passes for this satellites